Regional Weather Roundup
Issued by NWS

Home | Current Version | Previous Version | Graphics & Text | Print | Product List | Glossary On
Versions: 1 2 3 4 5 6 7 8 9 10 11 12 13 14 15 16 17 18 19 20 21 22 23 24 25 26 27 28 29 30 31 32 33 34 35 36 37 38 39 40 41 42 43 44 45 46 47 48 49 50
000
ASUS45 KCYS 281010
RWRWY

WYOMING REGIONAL WEATHER ROUNDUP
NATIONAL WEATHER SERVICE CHEYENNE WY
400 AM MDT FRI AUG 28 2015

NOTE:  "FAIR" INDICATES FEW OR NO CLOUDS BELOW 12,000 FEET
WITH NO SIGNIFICANT WEATHER AND/OR OBSTRUCTIONS TO VISIBILITY.

WYZ001-281100-
YELLOWSTONE NATIONAL PARK

CITY           SKY/WX    TMP DP  RH WIND       PRES   REMARKS
LK YELLOWSTONE   N/A     37  36  96 CALM      30.42S
W YELLOWSTONE  NOT AVBL

$$
WYZ002>013-054>058-071-098>099-281100-
NORTHERN WYOMING

CITY           SKY/WX    TMP DP  RH WIND       PRES   REMARKS
JACKSON        FAIR      45  43  93 NW3       30.34S
CODY           FAIR      55  45  67 S7        30.18S
GREYBULL       FAIR      59  51  75 CALM      30.14S HAZE
WORLAND        FAIR      54  52  93 CALM      30.15R FOG
SHERIDAN       FAIR      57  45  64 CALM      30.07R
BUFFALO        FAIR      66  38  35 W8        30.14S
GILLETTE       FAIR      64  44  48 W10       30.08R
HULETT         FAIR      59  50  72 S8        30.08S
NEWCASTLE      FAIR      57  48  72 N9        30.08S

$$
WYZ014>020-022>026-101>103-281100-
CENTRAL WYOMING

CITY           SKY/WX    TMP DP  RH WIND       PRES   REMARKS
BIG PINEY      FAIR      40  35  83 CALM      30.38S
PINEDALE       FAIR      41  41 100 W7        30.39S
DUBOIS         FAIR      45  39  81 NW17      30.35S
LANDER         FAIR      53  46  77 CALM      30.23S
RIVERTON       FAIR      53  49  86 S6        30.23F
CASPER         FAIR      56  45  66 SW7       30.21S
DOUGLAS        FAIR      64  45  49 NW13      30.17R

$$
WYZ021-027>030-104>119-281100-
SOUTHERN WYOMING

CITY           SKY/WX    TMP DP  RH WIND       PRES   REMARKS
EVANSTON       FAIR      56  37  49 SW6       30.38S
KEMMERER       FAIR      45  36  70 N9        30.40R
FORT BRIDGER   SUNNY     48  39  71 S8        30.40S
ROCK SPRINGS   FAIR      50  42  74 W9        30.34F
DIXON          FAIR      49  44  84 E3        30.36R
RAWLINS        FAIR      52  43  71 SW6       30.32R
SARATOGA       FAIR      48  45  87 SE6       30.34S
LARAMIE        MOCLDY    46  45  96 SE9       30.32F
CHEYENNE       MOCLDY    55  51  86 NW9       30.22F
TORRINGTON     FAIR      58  54  86 W3        30.08S
PINE BLUFFS    FAIR      57  50  77 CALM      30.15S

$$



USA.gov is the U.S. government's official web portal to all federal, state and local government web resources and services.